Location: ??????
(55.2000°N, 38.3000°E)
Time: 00:35:03
(UTC+00:00)

Cosmos 2346 Rocket - Pass Details

Date: 15 November 2025
Orbit: 935 x 979 km, 82.9° (Epoch: 12 December)

Event Time Altitude Azimuth Distance (km) Brightness Sun altitude
Rises 03:00:32 0° 201° (SSW) 3,622 7.4 -16.6°
Reaches altitude 10° 03:03:04 10° 205° (SSW) 2,674 6.6 -16.3°
Maximum altitude 03:09:06 62° 286° (WNW) 1,063 4.4 -15.4°
Drops below altitude 10° 03:15:08 10° 7° (N) 2,667 6.8 -14.6°
Sets 03:17:40 0° 11° (N) 3,612 7.5 -14.2°
